Location: Corona
(40.7470°N, 73.8601°W)
Time: 21:22:52
(UTC+00:00)

H-2A R/B - Pass Details

Date: 22 September 2019
Orbit: 734 x 836 km, 98.3° (Epoch: 14 October)

Event Time Altitude Azimuth Distance (km) Brightness Sun altitude
Exits shadow 23:42:18 13° 96° (E) 2,050 3.5 -10.1°
Maximum altitude 23:44:42 18° 63° (ENE) 1,788 3.5 -10.6°
Drops below altitude 10° 23:48:02 10° 21° (NNE) 2,300 4.4 -11.2°
Sets 23:51:01 0° 3° (N) 3,250 5.3 -11.8°
